Find Starlink 34287

NORAD ID: 64670 Int'l Des: 2025-139 Owner: SPXS Country: US Constellation: starlink operational
LEOCIRCULAR

Live Position

Loading 3D Globe...

About Starlink 34287

Description loading...

Upcoming Passes

Passes for default location (London). Set your location on the main map for personalized predictions.

Altitude History

Loading altitude history...

Two-Line Element Set

1 64670U 25139G 26106.83258895 .00013207 00000-0 45720-3 0 9990
2 64670 53.1595 309.8882 0001259 106.3676 253.7463 15.30203744 46129
Epoch: Apr 16, 2026 • Age: 16 hours

Current Status

Altitude 478.1 km
Velocity 7.63 km/s
Sub-Earth Point 40.66°N, 58.25°E
Launch Date Jun 28, 2025
Age 0.8 years
Type internet

Technical Details

Classification Payload
Mass 575.00 kg
Dry Mass 530.00 kg
Total Mass 575.00 kg
Length 0.30 m
Diameter 4.10 m
Span 29.00 m
Shape Box + pan
Manufacturer SPXS
Bus Type Starlink V2MO
Phase Status In Orbit
Owner/State SPXS/US

Most Searched